DECAYED

COSMOS 2251 DEB, 34057 (Decayed)

Orbit data source: Space-Track

COSMOS 2251 DEB, 34057 was space debris in LEO originally from a launch on Wed, 16 Jun 1993 UTC launched from the Plesetsk Missile And Space Complex (PKMTR). The debris from Iridium 33, an American commercial communications satellite, has been tracked extensively since its accidental collision with the defunct Russian satellite Cosmos 2251 in 2009. This event, occurring at high speed in low Earth orbit (LEO), generated thousands of pieces of space debris, significantly increasing the risk of further collisions. The Iridium 33 debris cloud has impacted space traffic management and orbital debris mitigation strategies, making it a subject of ongoing study in space situational awareness.

Not visible in the next 10 days
Identifier
34057, 1993-036JU
Orbit
Decayed
Country
Flag of CISCIS
Related business
Manufacturer
Unknown
Mission
Decayed spacecraft
Bus & Motor
Unknown
Mass
Unknown
Launch date (UTC)
1993-06-16 (33 years ago)
Launch vehicle
Unknown
Launch site
Plesetsk Missile And Space Complex (PKMTR)
Object type
Payload
Rocket body
Debris
Shape & HBR
Unknown shape, 0.1 m
Radar Cross Section
Small (<0.1 m²)

Expand to show TLE details & history
Last TLE update: 10 months ago

TLE from 10 months ago
0 COSMOS 2251 DEB
1 34057U 93036JU  25180.75094721  .09295849  19405-5  50441-2 0  9997
2 34057  73.9664 240.1155 0019708 292.0947  67.8208 16.19091416868542
Epoch: 2025-06-29T18:01Z
TLE epoch observation values (Epoch: 2025-06-29T18:01:21.838Z)
Latitude
-0.00011°
Longitude
51.70386°
Altitude
219.955 km
Speed
7.778 km/s
True Right ascension
16h 00m 27s
True Declination
0° 00' 00"
Sunlit
Object was in full shadow at epoch
Visualization orbit readout
Latitude
Unknown
Longitude
Unknown
Altitude
Unknown
Speed
Unknown
Apparent Right ascension
Unknown
Apparent Declination
Unknown
Sunlit
N/A
Visualization observer readout
Local Sidereal Time
20:20:52
Azimuth
Unknown
Elevation
Unknown
Doppler factor
Unknown
Orbital elements
Apogee altitude
232.454 km
Perigee altitude
206.449 km
Semi-major axis
6,597.589 km
Eccentricity
0.00197
Inclination
73.9664°
RAAN
240.1155°
Arg. of periapsis
292.0947°
True anomaly
68.03012°
Mean anomaly
67.8208°
Eccentric anomaly
67.92544°
Mean motion
4.0501 °/min
Orbital period
88.89 mins
BSTAR
0.0050441
Loading maneuver chart data...
Computing Atmospheric mass density...

Documentation

Showing up to 5 results
|